Location: Gälforsberget
(66.6500°N, 22.4167°E)
Time: 22:24:01
(UTC+00:00)

Meteor 1-25 Rocket - Pass Details

Date: 11 April 2026
Orbit: 835 x 891 km, 81.2° (Epoch: 13 May)

Event Time Altitude Azimuth Distance (km) Brightness Sun altitude
Rises 23:21:30 0° 337° (NNW) 3,515 8.4 -14.2°
Reaches altitude 10° 23:23:58 10° 338° (NNW) 2,574 7.6 -14.1°
Maximum altitude 23:29:52 87° 67° (ENE) 903 4.3 -14.0°
Enters shadow 23:35:24 12° 158° (SSE) 2,428 6.1 -13.8°
